Regional Weather Roundup
Issued by NWS

Home | Current Version | Previous Version | Text Only | Print | Product List | Glossary On
Versions: 1 2 3 4 5 6 7 8 9 10 11 12 13 14 15 16 17 18 19 20 21 22 23 24 25 26 27 28 29 30 31 32 33 34 35 36 37 38 39 40 41 42 43 44 45 46 47 48 49 50
000
ASUS43 KLSX 291110
RWRMO

WEATHER SUMMARY FOR MISSOURI
NATIONAL WEATHER SERVICE SPRINGFIELD MO
600 AM CDT WED MAR 29 2017

NOTE: "FAIR" INDICATES FEW OR NO CLOUDS BELOW 12,000 FEET WITH NO
       SIGNIFICANT WEATHER AND/OR OBSTRUCTIONS TO VISIBILITY.
       CURRENT SKY AND/OR WEATHER CONDITIONS ARE NOT AVAILABLE FOR
       CHILLICOTHE AND FARMINGTON.

MOZ001>031-035>038-043-044-053-054-291200-
...NORTHERN AND WESTERN MISSOURI...

CITY           SKY/WX    TMP DP  RH WIND       PRES   REMARKS
KANSAS CTY INT LGT RAIN  49  49 100 NE15      29.91F
KANSAS C DTWN  LGT RAIN  51  49  92 E14       29.90F
LEE`S SUMMIT   LGT RAIN  50  49  96 E14G22    29.91S FOG
ST JOSEPH      RAIN      49  48  97 E15       29.93F FOG
CHILLICOTHE      N/A     49  49 100 NW6       30.06R
KIRKSVILLE     CLOUDY    47  44  90 NE12G20   30.04R

$$
MOZ066>068-077>081-088>096-101>105-291200-
...SOUTHWEST MISSOURI...

CITY           SKY/WX    TMP DP  RH WIND       PRES   REMARKS
SPRINGFIELD    CLOUDY    55  50  83 SE21G26   29.86R
JOPLIN         CLOUDY    57  54  89 SE15G24   29.75F
BRANSON        CLOUDY    54  50  87 E14       29.90R

$$
MOZ032>034-039>042-045>050-055>058-069>072-291200-
...CENTRAL MISSOURI...

CITY           SKY/WX    TMP DP  RH WIND       PRES   REMARKS
COLUMBIA       CLOUDY    51  47  86 E16       29.91F
JEFFERSON CITY CLOUDY    54  47  77 E15G23    29.91F
ROLLA          MOCLDY    51  48  89 E18G24    29.91S
SEDALIA        TSTM      51  50  96 NE6       29.95R FOG
WHITEMAN AFB   LGT RAIN  50  50 100 NE6       29.92R VSB 1
WARRENSBURG    RAIN      50  48  93 NE9       29.92R
OSAGE BEACH    CLOUDY    54  48  80 E13G20    29.90R

$$
MOZ051-052-059>065-291200-
...EAST CENTRAL MISSOURI...

CITY           SKY/WX    TMP DP  RH WIND       PRES   REMARKS
ST LOUIS INTL  CLOUDY    50  42  74 E14       30.03F
SPIRIT OF STL  CLOUDY    50  45  83 E16       29.99F
ST CHARLES     CLOUDY    49  45  86 E13       30.03S

$$
MOZ072>076-082>087-097>100-106>115-291200-
...SOUTH CENTRAL AND SOUTHEAST MISSOURI...

CITY           SKY/WX    TMP DP  RH WIND       PRES   REMARKS
CAPE GIRARDEAU CLOUDY    52  48  86 E8        29.99F
FARMINGTON     CLOUDY    49  47  93 E12       29.98F
POPLAR BLUFF   MOCLDY    54  51  90 NE10      29.96F
WEST PLAINS    CLOUDY    54  50  86 E12       29.92R

$$



USA.gov is the U.S. government's official web portal to all federal, state and local government web resources and services.